contact: severine.martini@mio.osupytheas.fr, dominique.lefevre@mio.osupytheas.fr
Project:EMSO Ligure-ouest http://www.emso-fr.org/EMSO-France
Sensor Optode, line 4330 Serial 272 
DOI : "https://doi.org/10.17882/97948" 
Title:EMSO Ligure Ouest : Data BathyDock capteur Optode - deploiement "2023-04-28"
Datetime,Profondeur,Latitude,Longitude,optode_type,serial,O2_concentration,O2_saturation,Temperature,Calibrated_Phase,Temp_Compensated_Phase,phase_blue_light,phase_red_light,Amplitude_blue_light,Amplitude_red_light,thermistor_bridge
time,m,degree_north,degree_east,1,1,umol.l-1,%,degree_C,degree,degree,degree,degree,mV,mV,mV
2023-10-13T00:00:08,2420,42.8014,5.9826,4330,272,186.580,57.161,13.323,36.026,36.606,41.197,4.591,295.3,543.3,290.8
2023-10-13T00:03:07,2420,42.8014,5.9826,4330,272,186.490,57.129,13.320,36.033,36.613,41.203,4.590,295.4,543.2,290.9
2023-10-13T00:06:07,2420,42.8014,5.9826,4330,272,186.652,57.177,13.319,36.023,36.603,41.191,4.588,295.4,543.2,290.9
2023-10-13T00:09:07,2420,42.8014,5.9826,4330,272,186.592,57.152,13.313,36.030,36.610,41.202,4.592,295.5,543.3,291.1
2023-10-13T00:12:07,2420,42.8014,5.9826,4330,272,186.730,57.195,13.314,36.020,36.600,41.195,4.595,295.4,543.3,291.1
2023-10-13T00:15:07,2420,42.8014,5.9826,4330,272,186.473,57.124,13.320,36.034,36.614,41.208,4.594,295.4,543.3,290.9
2023-10-13T00:18:07,2420,42.8014,5.9826,4330,272,186.600,57.168,13.324,36.024,36.604,41.194,4.591,295.3,543.3,290.8
2023-10-13T00:21:08,2420,42.8014,5.9826,4330,272,186.522,57.137,13.318,36.032,36.612,41.204,4.593,295.3,543.3,291.0
2023-10-13T00:24:08,2420,42.8014,5.9826,4330,272,186.482,57.137,13.328,36.030,36.610,41.197,4.588,295.3,543.4,290.6
2023-10-13T00:27:08,2420,42.8014,5.9826,4330,272,186.477,57.130,13.323,36.032,36.612,41.204,4.591,295.4,543.3,290.8
2023-10-13T00:30:08,2420,42.8014,5.9826,4330,272,186.574,57.158,13.322,36.026,36.606,41.199,4.593,295.4,543.3,290.8
2023-10-13T00:33:07,2420,42.8014,5.9826,4330,272,186.478,57.134,13.326,36.031,36.611,41.202,4.591,295.4,543.3,290.7
2023-10-13T00:36:07,2420,42.8014,5.9826,4330,272,186.595,57.150,13.311,36.031,36.611,41.206,4.595,295.3,543.3,291.2
2023-10-13T00:39:07,2420,42.8014,5.9826,4330,272,186.698,57.193,13.320,36.020,36.600,41.194,4.594,295.4,543.3,290.9
2023-10-13T00:42:07,2420,42.8014,5.9826,4330,272,186.621,57.172,13.322,36.023,36.603,41.194,4.591,295.3,543.3,290.8
2023-10-13T00:45:07,2420,42.8014,5.9826,4330,272,186.619,57.172,13.322,36.024,36.604,41.192,4.588,295.3,543.3,290.8
2023-10-13T00:48:07,2420,42.8014,5.9826,4330,272,186.825,57.237,13.324,36.010,36.590,41.180,4.590,295.3,543.2,290.8
2023-10-13T00:51:08,2420,42.8014,5.9826,4330,272,186.322,57.089,13.329,36.039,36.619,41.209,4.590,295.4,543.2,290.6
2023-10-13T00:54:08,2420,42.8014,5.9826,4330,272,186.582,57.175,13.334,36.020,36.600,41.199,4.599,295.5,543.2,290.4
2023-10-13T00:57:08,2420,42.8014,5.9826,4330,272,186.384,57.101,13.323,36.039,36.619,41.210,4.591,295.4,543.3,290.8
2023-10-13T01:00:07,2420,42.8014,5.9826,4330,272,186.403,57.112,13.327,36.035,36.615,41.208,4.594,295.5,543.3,290.7
2023-10-13T01:03:07,2420,42.8014,5.9826,4330,272,186.653,57.177,13.318,36.023,36.603,41.196,4.593,295.4,543.2,291.0
2023-10-13T01:06:07,2420,42.8014,5.9826,4330,272,186.378,57.095,13.320,36.041,36.621,41.213,4.593,295.5,543.2,290.9
2023-10-13T01:09:07,2420,42.8014,5.9826,4330,272,186.409,57.114,13.327,36.035,36.615,41.209,4.594,295.6,543.2,290.7
2023-10-13T01:12:07,2420,42.8014,5.9826,4330,272,186.350,57.098,13.329,36.038,36.618,41.210,4.592,295.5,543.3,290.6
2023-10-13T01:15:07,2420,42.8014,5.9826,4330,272,186.213,57.052,13.326,36.048,36.628,41.219,4.591,295.5,543.3,290.7
2023-10-13T01:18:07,2420,42.8014,5.9826,4330,272,186.291,57.073,13.323,36.045,36.625,41.215,4.590,295.5,543.3,290.8
2023-10-13T01:21:08,2420,42.8014,5.9826,4330,272,186.322,57.092,13.331,36.038,36.618,41.208,4.589,295.4,543.4,290.5
2023-10-13T01:24:08,2420,42.8014,5.9826,4330,272,186.552,57.155,13.325,36.026,36.606,41.199,4.593,295.6,543.2,290.7
2023-10-13T01:27:08,2420,42.8014,5.9826,4330,272,186.347,57.098,13.330,36.037,36.617,41.213,4.596,295.5,543.3,290.6
2023-10-13T01:30:08,2420,42.8014,5.9826,4330,272,186.047,57.004,13.328,36.058,36.638,41.228,4.591,295.5,543.4,290.6
2023-10-13T01:33:07,2420,42.8014,5.9826,4330,272,186.261,57.064,13.323,36.046,36.626,41.217,4.591,295.6,543.3,290.8
2023-10-13T01:36:07,2420,42.8014,5.9826,4330,272,186.101,57.021,13.328,36.055,36.635,41.230,4.596,295.7,543.3,290.6
2023-10-13T01:39:07,2420,42.8014,5.9826,4330,272,185.768,56.915,13.325,36.078,36.657,41.251,4.593,295.7,543.3,290.7
2023-10-13T01:42:07,2420,42.8014,5.9826,4330,272,186.159,57.036,13.326,36.052,36.632,41.223,4.591,295.7,543.2,290.7
2023-10-13T01:45:07,2420,42.8014,5.9826,4330,272,185.884,56.964,13.336,36.065,36.645,41.238,4.594,295.6,543.3,290.4
2023-10-13T01:48:07,2420,42.8014,5.9826,4330,272,185.928,56.963,13.325,36.067,36.647,41.237,4.590,295.7,543.3,290.7
2023-10-13T01:51:07,2420,42.8014,5.9826,4330,272,185.885,56.951,13.326,36.070,36.650,41.240,4.590,295.7,543.2,290.7
2023-10-13T01:54:07,2420,42.8014,5.9826,4330,272,186.063,57.006,13.326,36.058,36.638,41.228,4.590,295.7,543.3,290.7
2023-10-13T01:57:08,2420,42.8014,5.9826,4330,272,186.038,56.994,13.323,36.061,36.641,41.234,4.593,295.8,543.2,290.8
2023-10-13T02:00:08,2420,42.8014,5.9826,4330,272,185.679,56.879,13.318,36.087,36.666,41.252,4.586,295.8,543.3,291.0
2023-10-13T02:03:07,2420,42.8014,5.9826,4330,272,185.756,56.910,13.324,36.079,36.659,41.250,4.591,295.8,543.2,290.8
2023-10-13T02:06:07,2420,42.8014,5.9826,4330,272,186.042,57.006,13.331,36.057,36.637,41.229,4.592,295.8,543.2,290.6
2023-10-13T02:09:07,2420,42.8014,5.9826,4330,272,186.114,57.020,13.324,36.055,36.635,41.226,4.590,295.8,543.2,290.8
2023-10-13T02:12:07,2420,42.8014,5.9826,4330,272,185.859,56.943,13.325,36.072,36.651,41.236,4.585,295.9,543.4,290.7
2023-10-13T02:15:08,2420,42.8014,5.9826,4330,272,185.934,56.964,13.324,36.068,36.647,41.240,4.593,295.8,543.3,290.8
2023-10-13T02:18:08,2420,42.8014,5.9826,4330,272,185.940,56.960,13.319,36.070,36.649,41.238,4.589,295.8,543.2,290.9
2023-10-13T02:21:08,2420,42.8014,5.9826,4330,272,185.975,56.978,13.325,36.065,36.644,41.236,4.592,295.7,543.3,290.7
2023-10-13T02:24:08,2420,42.8014,5.9826,4330,272,185.802,56.935,13.333,36.072,36.651,41.245,4.594,295.8,543.2,290.5
2023-10-13T02:27:08,2420,42.8014,5.9826,4330,272,185.702,56.893,13.324,36.083,36.663,41.256,4.593,295.9,543.3,290.8
2023-10-13T02:30:08,2420,42.8014,5.9826,4330,272,185.536,56.841,13.323,36.094,36.674,41.263,4.589,295.9,543.3,290.8
2023-10-13T02:33:07,2420,42.8014,5.9826,4330,272,185.411,56.812,13.330,36.098,36.678,41.272,4.594,296.0,543.3,290.6
2023-10-13T02:36:07,2420,42.8014,5.9826,4330,272,185.667,56.877,13.320,36.087,36.667,41.259,4.592,296.0,543.3,290.9
2023-10-13T02:39:07,2420,42.8014,5.9826,4330,272,185.704,56.884,13.317,36.086,36.666,41.258,4.592,296.0,543.3,291.0
2023-10-13T02:42:07,2420,42.8014,5.9826,4330,272,185.953,56.966,13.321,36.068,36.648,41.241,4.593,295.8,543.3,290.9
2023-10-13T02:45:07,2420,42.8014,5.9826,4330,272,186.024,56.985,13.318,36.065,36.644,41.240,4.595,295.9,543.3,290.9
2023-10-13T02:48:07,2420,42.8014,5.9826,4330,272,186.166,57.037,13.325,36.052,36.632,41.225,4.593,295.7,543.3,290.7
2023-10-13T02:51:07,2420,42.8014,5.9826,4330,272,186.020,56.995,13.328,36.060,36.640,41.230,4.590,295.6,543.3,290.6
2023-10-13T02:54:08,2420,42.8014,5.9826,4330,272,186.290,57.063,13.316,36.048,36.628,41.220,4.593,295.6,543.4,291.0
2023-10-13T02:57:08,2420,42.8014,5.9826,4330,272,186.092,57.010,13.322,36.058,36.638,41.231,4.593,295.6,543.3,290.8
2023-10-13T03:00:08,2420,42.8014,5.9826,4330,272,186.253,57.057,13.320,36.048,36.628,41.224,4.596,295.6,543.4,290.9
2023-10-13T03:03:07,2420,42.8014,5.9826,4330,272,186.330,57.082,13.321,36.043,36.623,41.217,4.594,295.6,543.4,290.9
2023-10-13T03:06:07,2420,42.8014,5.9826,4330,272,186.219,57.057,13.328,36.047,36.627,41.219,4.592,295.5,543.3,290.6
2023-10-13T03:09:07,2420,42.8014,5.9826,4330,272,186.229,57.048,13.319,36.050,36.630,41.221,4.591,295.6,543.3,290.9
2023-10-13T03:12:07,2420,42.8014,5.9826,4330,272,186.330,57.090,13.328,36.040,36.620,41.215,4.595,295.5,543.4,290.6
2023-10-13T03:15:07,2420,42.8014,5.9826,4330,272,186.306,57.084,13.329,36.040,36.620,41.211,4.590,295.5,543.4,290.6
2023-10-13T03:18:07,2420,42.8014,5.9826,4330,272,186.599,57.159,13.317,36.027,36.607,41.205,4.598,295.4,543.3,291.0
2023-10-13T03:21:07,2420,42.8014,5.9826,4330,272,186.453,57.130,13.329,36.031,36.611,41.204,4.594,295.5,543.3,290.6
2023-10-13T03:24:07,2420,42.8014,5.9826,4330,272,186.516,57.143,13.324,36.029,36.609,41.204,4.595,295.5,543.3,290.8
2023-10-13T03:27:08,2420,42.8014,5.9826,4330,272,186.359,57.086,13.318,36.043,36.623,41.217,4.594,295.5,543.3,291.0
2023-10-13T03:30:08,2420,42.8014,5.9826,4330,272,186.139,57.027,13.324,36.054,36.634,41.222,4.588,295.5,543.3,290.8
2023-10-13T03:33:07,2420,42.8014,5.9826,4330,272,186.521,57.135,13.317,36.032,36.613,41.205,4.593,295.5,543.3,291.0
2023-10-13T03:36:07,2420,42.8014,5.9826,4330,272,186.634,57.170,13.317,36.025,36.605,41.199,4.594,295.5,543.3,291.0
2023-10-13T03:39:07,2420,42.8014,5.9826,4330,272,186.334,57.075,13.315,36.045,36.625,41.213,4.588,295.5,543.3,291.1
2023-10-13T03:42:07,2420,42.8014,5.9826,4330,272,186.592,57.167,13.325,36.024,36.604,41.198,4.594,295.5,543.3,290.7
2023-10-13T03:45:07,2420,42.8014,5.9826,4330,272,186.343,57.092,13.326,36.040,36.620,41.215,4.595,295.4,543.3,290.7
2023-10-13T03:48:07,2420,42.8014,5.9826,4330,272,186.417,57.108,13.321,36.037,36.617,41.214,4.596,295.5,543.2,290.9
2023-10-13T03:51:07,2420,42.8014,5.9826,4330,272,186.482,57.133,13.325,36.031,36.611,41.202,4.591,295.5,543.3,290.7
2023-10-13T03:54:07,2420,42.8014,5.9826,4330,272,186.309,57.091,13.334,36.039,36.619,41.208,4.589,295.5,543.4,290.4
2023-10-13T03:57:07,2420,42.8014,5.9826,4330,272,186.247,57.059,13.323,36.047,36.627,41.219,4.592,295.6,543.3,290.8
2023-10-13T04:00:07,2420,42.8014,5.9826,4330,272,186.274,57.071,13.326,36.044,36.624,41.219,4.595,295.6,543.2,290.7
2023-10-13T04:03:07,2420,42.8014,5.9826,4330,272,186.387,57.109,13.329,36.036,36.616,41.209,4.593,295.5,543.3,290.6
2023-10-13T04:06:07,2420,42.8014,5.9826,4330,272,186.326,57.083,13.323,36.042,36.622,41.216,4.594,295.6,543.3,290.8
2023-10-13T04:09:07,2420,42.8014,5.9826,4330,272,186.247,57.061,13.325,36.047,36.627,41.222,4.595,295.5,543.2,290.7
2023-10-13T04:12:07,2420,42.8014,5.9826,4330,272,186.465,57.118,13.317,36.036,36.616,41.207,4.592,295.5,543.2,291.0
2023-10-13T04:15:07,2420,42.8014,5.9826,4330,272,186.359,57.105,13.332,36.036,36.616,41.211,4.595,295.5,543.3,290.5
2023-10-13T04:18:08,2420,42.8014,5.9826,4330,272,186.465,57.127,13.324,36.032,36.612,41.203,4.590,295.5,543.3,290.8
2023-10-13T04:21:08,2420,42.8014,5.9826,4330,272,186.477,57.144,13.335,36.027,36.607,41.201,4.594,295.5,543.3,290.4
2023-10-13T04:24:08,2420,42.8014,5.9826,4330,272,186.580,57.167,13.328,36.023,36.603,41.198,4.595,295.5,543.3,290.6
2023-10-13T04:27:08,2420,42.8014,5.9826,4330,272,186.079,57.007,13.323,36.059,36.638,41.225,4.587,295.6,543.3,290.8
2023-10-13T04:30:08,2420,42.8014,5.9826,4330,272,186.375,57.101,13.326,36.038,36.618,41.210,4.592,295.5,543.3,290.7
2023-10-13T04:33:07,2420,42.8014,5.9826,4330,272,186.152,57.030,13.323,36.053,36.633,41.226,4.593,295.6,543.3,290.8
2023-10-13T04:36:07,2420,42.8014,5.9826,4330,272,186.353,57.094,13.325,36.040,36.620,41.211,4.591,295.6,543.2,290.7
2023-10-13T04:39:07,2420,42.8014,5.9826,4330,272,186.466,57.124,13.321,36.034,36.614,41.210,4.596,295.5,543.3,290.9
2023-10-13T04:42:07,2420,42.8014,5.9826,4330,272,186.313,57.079,13.323,36.043,36.623,41.214,4.591,295.6,543.3,290.8
2023-10-13T04:45:07,2420,42.8014,5.9826,4330,272,186.237,57.055,13.322,36.049,36.629,41.220,4.591,295.5,543.2,290.8
2023-10-13T04:48:07,2420,42.8014,5.9826,4330,272,186.351,57.089,13.322,36.041,36.621,41.215,4.594,295.6,543.3,290.8
2023-10-13T04:51:07,2420,42.8014,5.9826,4330,272,186.220,57.045,13.318,36.052,36.631,41.222,4.590,295.6,543.3,290.9
2023-10-13T04:54:07,2420,42.8014,5.9826,4330,272,186.280,57.075,13.328,36.043,36.623,41.217,4.594,295.6,543.2,290.6
2023-10-13T04:57:08,2420,42.8014,5.9826,4330,272,186.172,57.041,13.327,36.050,36.630,41.221,4.591,295.6,543.3,290.7
2023-10-13T05:00:08,2420,42.8014,5.9826,4330,272,186.318,57.083,13.325,36.042,36.622,41.215,4.593,295.5,543.3,290.7
2023-10-13T05:03:07,2420,42.8014,5.9826,4330,272,186.285,57.078,13.329,36.042,36.622,41.216,4.594,295.5,543.3,290.6
2023-10-13T05:06:07,2420,42.8014,5.9826,4330,272,186.441,57.115,13.321,36.036,36.616,41.210,4.594,295.5,543.3,290.9
2023-10-13T05:09:07,2420,42.8014,5.9826,4330,272,186.577,57.158,13.321,36.027,36.607,41.199,4.592,295.4,543.3,290.8
2023-10-13T05:12:08,2420,42.8014,5.9826,4330,272,186.389,57.106,13.326,36.037,36.617,41.211,4.594,295.5,543.3,290.7
2023-10-13T05:15:08,2420,42.8014,5.9826,4330,272,186.478,57.137,13.329,36.030,36.610,41.201,4.591,295.4,543.3,290.6
2023-10-13T05:18:08,2420,42.8014,5.9826,4330,272,186.641,57.179,13.323,36.022,36.602,41.195,4.592,295.5,543.3,290.8
2023-10-13T05:21:08,2420,42.8014,5.9826,4330,272,186.384,57.098,13.321,36.039,36.619,41.214,4.594,295.5,543.3,290.9
2023-10-13T05:24:08,2420,42.8014,5.9826,4330,272,186.844,57.243,13.324,36.008,36.588,41.180,4.592,295.4,543.3,290.8
2023-10-13T05:27:08,2420,42.8014,5.9826,4330,272,186.491,57.131,13.321,36.032,36.612,41.201,4.589,295.4,543.3,290.9
2023-10-13T05:30:08,2420,42.8014,5.9826,4330,272,186.445,57.125,13.328,36.032,36.612,41.204,4.592,295.4,543.3,290.6
2023-10-13T05:33:07,2420,42.8014,5.9826,4330,272,186.289,57.075,13.325,36.043,36.623,41.214,4.591,295.4,543.3,290.7
2023-10-13T05:36:07,2420,42.8014,5.9826,4330,272,186.239,57.063,13.328,36.045,36.625,41.216,4.591,295.5,543.3,290.6
2023-10-13T05:39:07,2420,42.8014,5.9826,4330,272,186.280,57.066,13.321,36.046,36.626,41.220,4.594,295.5,543.3,290.9
2023-10-13T05:42:07,2420,42.8014,5.9826,4330,272,186.490,57.126,13.318,36.034,36.615,41.208,4.594,295.5,543.3,291.0
2023-10-13T05:45:07,2420,42.8014,5.9826,4330,272,186.636,57.178,13.323,36.022,36.602,41.198,4.596,295.5,543.2,290.8
2023-10-13T05:48:07,2420,42.8014,5.9826,4330,272,186.493,57.140,13.327,36.030,36.610,41.206,4.597,295.4,543.2,290.7
2023-10-13T05:51:07,2420,42.8014,5.9826,4330,272,186.410,57.117,13.329,36.034,36.614,41.207,4.594,295.4,543.2,290.6
2023-10-13T05:54:07,2420,42.8014,5.9826,4330,272,186.102,57.026,13.332,36.052,36.632,41.222,4.590,295.5,543.3,290.5
2023-10-13T05:57:07,2420,42.8014,5.9826,4330,272,186.506,57.139,13.323,36.031,36.611,41.208,4.598,295.4,543.3,290.8
2023-10-13T06:00:07,2420,42.8014,5.9826,4330,272,186.465,57.117,13.316,36.036,36.616,41.211,4.594,295.5,543.3,291.0
2023-10-13T06:03:07,2420,42.8014,5.9826,4330,272,186.510,57.139,13.323,36.030,36.610,41.204,4.593,295.5,543.3,290.8
2023-10-13T06:06:07,2420,42.8014,5.9826,4330,272,186.188,57.047,13.328,36.049,36.629,41.222,4.593,295.5,543.2,290.6
2023-10-13T06:09:07,2420,42.8014,5.9826,4330,272,186.221,57.053,13.325,36.048,36.628,41.219,4.591,295.5,543.3,290.7
2023-10-13T06:12:07,2420,42.8014,5.9826,4330,272,186.423,57.111,13.321,36.036,36.616,41.206,4.589,295.5,543.4,290.9
2023-10-13T06:15:07,2420,42.8014,5.9826,4330,272,186.396,57.092,13.313,36.042,36.622,41.215,4.593,295.5,543.4,291.1
2023-10-13T06:18:07,2420,42.8014,5.9826,4330,272,186.623,57.167,13.317,36.026,36.606,41.198,4.593,295.5,543.3,291.0
2023-10-13T06:21:07,2420,42.8014,5.9826,4330,272,186.512,57.128,13.314,36.035,36.615,41.205,4.590,295.4,543.4,291.1
2023-10-13T06:24:08,2420,42.8014,5.9826,4330,272,186.519,57.136,13.319,36.032,36.612,41.204,4.592,295.5,543.3,290.9
2023-10-13T06:27:08,2420,42.8014,5.9826,4330,272,186.480,57.130,13.323,36.032,36.612,41.203,4.591,295.4,543.3,290.8
2023-10-13T06:30:08,2420,42.8014,5.9826,4330,272,186.449,57.114,13.318,36.037,36.617,41.211,4.594,295.6,543.4,291.0
2023-10-13T06:33:07,2420,42.8014,5.9826,4330,272,186.461,57.113,13.314,36.038,36.618,41.215,4.597,295.5,543.4,291.1
2023-10-13T06:36:07,2420,42.8014,5.9826,4330,272,186.440,57.110,13.316,36.038,36.618,41.212,4.593,295.4,543.3,291.0
2023-10-13T06:39:07,2420,42.8014,5.9826,4330,272,186.589,57.159,13.320,36.026,36.607,41.198,4.591,295.4,543.3,290.9
2023-10-13T06:42:07,2420,42.8014,5.9826,4330,272,186.420,57.112,13.323,36.036,36.616,41.209,4.593,295.5,543.3,290.8
2023-10-13T06:45:07,2420,42.8014,5.9826,4330,272,186.305,57.087,13.331,36.039,36.619,41.211,4.591,295.4,543.3,290.5
2023-10-13T06:48:07,2420,42.8014,5.9826,4330,272,186.428,57.118,13.326,36.035,36.615,41.208,4.593,295.5,543.2,290.7
2023-10-13T06:51:07,2420,42.8014,5.9826,4330,272,186.469,57.124,13.321,36.034,36.614,41.205,4.591,295.5,543.3,290.9
2023-10-13T06:54:07,2420,42.8014,5.9826,4330,272,186.494,57.124,13.315,36.035,36.615,41.204,4.589,295.6,543.3,291.1
2023-10-13T06:57:07,2420,42.8014,5.9826,4330,272,186.463,57.128,13.325,36.033,36.613,41.208,4.596,295.5,543.2,290.7
2023-10-13T07:00:08,2420,42.8014,5.9826,4330,272,186.445,57.113,13.318,36.037,36.617,41.215,4.598,295.5,543.3,291.0
2023-10-13T07:03:07,2420,42.8014,5.9826,4330,272,186.265,57.056,13.317,36.049,36.629,41.221,4.592,295.6,543.3,291.0
2023-10-13T07:06:07,2420,42.8014,5.9826,4330,272,186.532,57.141,13.319,36.031,36.611,41.205,4.594,295.5,543.4,290.9
2023-10-13T07:09:07,2420,42.8014,5.9826,4330,272,186.356,57.094,13.324,36.039,36.619,41.209,4.590,295.5,543.3,290.8
2023-10-13T07:12:07,2420,42.8014,5.9826,4330,272,186.272,57.064,13.321,36.046,36.626,41.217,4.590,295.5,543.3,290.9
2023-10-13T07:15:08,2420,42.8014,5.9826,4330,272,186.544,57.140,13.315,36.031,36.612,41.205,4.593,295.5,543.4,291.1
2023-10-13T07:18:08,2420,42.8014,5.9826,4330,272,186.291,57.062,13.315,36.048,36.628,41.222,4.593,295.5,543.3,291.1
2023-10-13T07:21:08,2420,42.8014,5.9826,4330,272,186.469,57.119,13.317,36.036,36.616,41.204,4.588,295.4,543.3,291.0
2023-10-13T07:24:08,2420,42.8014,5.9826,4330,272,186.399,57.114,13.329,36.035,36.615,41.204,4.589,295.3,543.4,290.6
2023-10-13T07:27:08,2420,42.8014,5.9826,4330,272,186.480,57.117,13.312,36.037,36.617,41.209,4.591,295.4,543.3,291.1
2023-10-13T07:30:07,2420,42.8014,5.9826,4330,272,186.477,57.113,13.310,36.039,36.619,41.208,4.589,295.5,543.3,291.2
2023-10-13T07:33:07,2420,42.8014,5.9826,4330,272,186.470,57.131,13.326,36.031,36.612,41.204,4.592,295.4,543.4,290.7
2023-10-13T07:36:07,2420,42.8014,5.9826,4330,272,186.477,57.116,13.312,36.038,36.618,41.208,4.590,295.5,543.3,291.1
2023-10-13T07:39:07,2420,42.8014,5.9826,4330,272,186.800,57.215,13.312,36.016,36.596,41.191,4.595,295.3,543.3,291.1
2023-10-13T07:42:08,2420,42.8014,5.9826,4330,272,186.712,57.187,13.311,36.023,36.603,41.195,4.592,295.4,543.3,291.2
2023-10-13T07:45:08,2420,42.8014,5.9826,4330,272,186.439,57.126,13.330,36.032,36.612,41.201,4.589,295.4,543.2,290.6
2023-10-13T07:48:08,2420,42.8014,5.9826,4330,272,186.842,57.236,13.319,36.011,36.591,41.183,4.592,295.5,543.3,290.9
2023-10-13T07:51:08,2420,42.8014,5.9826,4330,272,186.575,57.152,13.318,36.028,36.608,41.197,4.589,295.4,543.3,291.0
2023-10-13T07:54:08,2420,42.8014,5.9826,4330,272,186.624,57.173,13.322,36.023,36.603,41.201,4.598,295.4,543.3,290.8
2023-10-13T07:57:08,2420,42.8014,5.9826,4330,272,186.577,57.160,13.323,36.026,36.606,41.201,4.595,295.5,543.3,290.8
2023-10-13T08:00:08,2420,42.8014,5.9826,4330,272,186.355,57.096,13.326,36.038,36.618,41.214,4.596,295.5,543.3,290.7
2023-10-13T08:03:07,2420,42.8014,5.9826,4330,272,186.512,57.145,13.327,36.028,36.608,41.199,4.591,295.5,543.2,290.7
2023-10-13T08:06:07,2420,42.8014,5.9826,4330,272,186.256,57.063,13.324,36.046,36.626,41.217,4.591,295.6,543.3,290.8
2023-10-13T08:09:07,2420,42.8014,5.9826,4330,272,186.516,57.140,13.322,36.030,36.610,41.209,4.599,295.5,543.3,290.8
2023-10-13T08:12:07,2420,42.8014,5.9826,4330,272,186.265,57.057,13.317,36.048,36.628,41.223,4.595,295.6,543.3,291.0
2023-10-13T08:15:07,2420,42.8014,5.9826,4330,272,186.301,57.079,13.326,36.042,36.622,41.213,4.591,295.5,543.2,290.7
2023-10-13T08:18:07,2420,42.8014,5.9826,4330,272,186.327,57.078,13.319,36.044,36.624,41.221,4.598,295.5,543.3,290.9
2023-10-13T08:21:07,2420,42.8014,5.9826,4330,272,186.388,57.107,13.327,36.036,36.616,41.208,4.592,295.6,543.3,290.7
2023-10-13T08:24:07,2420,42.8014,5.9826,4330,272,186.312,57.071,13.317,36.046,36.626,41.220,4.594,295.5,543.3,291.0
2023-10-13T08:27:08,2420,42.8014,5.9826,4330,272,186.440,57.112,13.318,36.037,36.617,41.208,4.591,295.5,543.3,291.0
2023-10-13T08:30:08,2420,42.8014,5.9826,4330,272,186.577,57.159,13.322,36.026,36.606,41.192,4.586,295.5,543.4,290.8
2023-10-13T08:33:07,2420,42.8014,5.9826,4330,272,186.363,57.085,13.315,36.044,36.624,41.219,4.595,295.5,543.3,291.0
2023-10-13T08:36:07,2420,42.8014,5.9826,4330,272,186.477,57.114,13.311,36.038,36.618,41.208,4.589,295.4,543.3,291.2
2023-10-13T08:39:07,2420,42.8014,5.9826,4330,272,186.440,57.110,13.317,36.038,36.618,41.208,4.589,295.4,543.3,291.0
2023-10-13T08:42:07,2420,42.8014,5.9826,4330,272,186.462,57.125,13.324,36.033,36.613,41.201,4.588,295.4,543.4,290.8
2023-10-13T08:45:07,2420,42.8014,5.9826,4330,272,186.620,57.168,13.319,36.025,36.605,41.201,4.595,295.5,543.3,290.9
2023-10-13T08:48:07,2420,42.8014,5.9826,4330,272,186.517,57.132,13.316,36.033,36.613,41.208,4.595,295.5,543.3,291.0
2023-10-13T08:51:07,2420,42.8014,5.9826,4330,272,186.409,57.098,13.315,36.040,36.620,41.210,4.589,295.5,543.3,291.1
2023-10-13T08:54:08,2420,42.8014,5.9826,4330,272,186.455,57.119,13.320,36.036,36.616,41.205,4.589,295.4,543.4,290.9
2023-10-13T08:57:08,2420,42.8014,5.9826,4330,272,186.508,57.124,13.311,36.036,36.616,41.213,4.597,295.5,543.4,291.2
2023-10-13T09:00:08,2420,42.8014,5.9826,4330,272,186.564,57.151,13.319,36.029,36.609,41.198,4.589,295.4,543.4,290.9
2023-10-13T09:03:07,2420,42.8014,5.9826,4330,272,186.469,57.115,13.313,36.038,36.618,41.210,4.592,295.5,543.4,291.1
2023-10-13T09:06:07,2420,42.8014,5.9826,4330,272,186.505,57.127,13.314,36.035,36.615,41.206,4.591,295.4,543.4,291.1
2023-10-13T09:09:07,2420,42.8014,5.9826,4330,272,186.703,57.199,13.323,36.017,36.597,41.189,4.592,295.4,543.3,290.8
2023-10-13T09:12:07,2420,42.8014,5.9826,4330,272,186.465,57.118,13.317,36.036,36.616,41.207,4.591,295.4,543.3,291.0
2023-10-13T09:15:07,2420,42.8014,5.9826,4330,272,186.504,57.128,13.316,36.035,36.615,41.209,4.594,295.4,543.3,291.0
2023-10-13T09:18:07,2420,42.8014,5.9826,4330,272,186.514,57.135,13.319,36.032,36.612,41.202,4.590,295.5,543.3,290.9
2023-10-13T09:21:07,2420,42.8014,5.9826,4330,272,186.645,57.177,13.320,36.023,36.603,41.198,4.595,295.5,543.3,290.9
2023-10-13T09:24:08,2420,42.8014,5.9826,4330,272,186.760,57.202,13.312,36.019,36.599,41.193,4.594,295.4,543.4,291.2
2023-10-13T09:27:08,2420,42.8014,5.9826,4330,272,186.582,57.157,13.320,36.027,36.607,41.204,4.597,295.4,543.3,290.9
2023-10-13T09:30:08,2420,42.8014,5.9826,4330,272,186.542,57.139,13.315,36.032,36.612,41.203,4.591,295.4,543.4,291.1
2023-10-13T09:33:07,2420,42.8014,5.9826,4330,272,186.576,57.154,13.318,36.028,36.608,41.201,4.593,295.4,543.3,290.9
2023-10-13T09:36:07,2420,42.8014,5.9826,4330,272,186.655,57.177,13.318,36.023,36.603,41.198,4.594,295.4,543.3,291.0
2023-10-13T09:39:07,2420,42.8014,5.9826,4330,272,186.336,57.091,13.327,36.040,36.620,41.209,4.589,295.5,543.3,290.7
2023-10-13T09:42:07,2420,42.8014,5.9826,4330,272,186.564,57.148,13.317,36.030,36.610,41.203,4.593,295.5,543.3,291.0
2023-10-13T09:45:07,2420,42.8014,5.9826,4330,272,186.548,57.135,13.311,36.034,36.614,41.206,4.592,295.4,543.4,291.2
2023-10-13T09:48:07,2420,42.8014,5.9826,4330,272,186.681,57.179,13.313,36.024,36.604,41.196,4.592,295.3,543.3,291.1
2023-10-13T09:51:07,2420,42.8014,5.9826,4330,272,186.702,57.186,13.313,36.023,36.603,41.199,4.596,295.4,543.4,291.1
2023-10-13T09:54:08,2420,42.8014,5.9826,4330,272,186.561,57.142,13.313,36.031,36.611,41.202,4.591,295.4,543.3,291.1
2023-10-13T09:57:08,2420,42.8014,5.9826,4330,272,186.451,57.116,13.319,36.036,36.616,41.209,4.593,295.4,543.4,290.9
2023-10-13T10:00:08,2420,42.8014,5.9826,4330,272,186.462,57.128,13.325,36.032,36.612,41.207,4.595,295.4,543.3,290.7